This is the latest recevied weather packets stored in our database for station/object KD8OUK. If no packets are shown the sender has not sent any weather packets the latest 10 day(s).
| Time | Temp. | Humidity | Pressure | Rain* | Wind** | Luminosity | Snow |
|---|---|---|---|---|---|---|---|
| 1778209517 | 8.33° C | 80% | 1014.5 hPa | 0 mm | - | - | - |
| 1778209227 | 8.33° C | 81% | 1014.4 hPa | 0 mm | - | - | - |
| 1778208920 | 8.33° C | 81% | 1014.3 hPa | 0 mm | - | - | - |
| 1778208630 | 8.33° C | 81% | 1014.3 hPa | 0 mm | - | - | - |
| 1778208323 | 8.33° C | 81% | 1014.3 hPa | 0 mm | - | - | - |
| 1778208033 | 8.33° C | 79% | 1014.3 hPa | 0 mm | - | - | - |
| 1778207725 | 8.89° C | 79% | 1014.5 hPa | 0 mm | - | - | - |
| 1778207417 | 8.89° C | 77% | 1014.5 hPa | 0 mm | - | - | - |
| 1778207127 | 8.89° C | 74% | 1014.5 hPa | 0 mm | - | - | - |
| 1778206828 | 8.89° C | 74% | 1014.5 hPa | 0 mm | - | - | - |
| 1778206524 | 8.89° C | 76% | 1014.5 hPa | 0 mm | - | - | - |
| 1778206216 | 8.89° C | 71% | 1014.3 hPa | 0 mm | - | - | - |
| 1778205920 | 8.89° C | 71% | 1014.3 hPa | 0 mm | - | - | - |
| 1778205619 | 9.44° C | 70% | 1014.2 hPa | 0 mm | - | - | - |
| 1778205316 | 9.44° C | 68% | 1014.2 hPa | 0 mm | - | - | - |
| 1778205020 | 9.44° C | 68% | 1014.2 hPa | 0 mm | - | - | - |
| 1778204732 | 10° C | 68% | 1014.2 hPa | 0 mm | - | - | - |
| 1778204418 | 10° C | 67% | 1014.2 hPa | 0 mm | - | - | - |
| 1778204128 | 10° C | 65% | 1014.3 hPa | 0 mm | - | - | - |
| 1778203820 | 10.56° C | 64% | 1014.3 hPa | 0 mm | - | - | - |
| 1778203530 | 10.56° C | 63% | 1014.2 hPa | 0 mm | - | - | - |
| 1778203222 | 10.56° C | 61% | 1014.1 hPa | 0 mm | - | - | - |
| 1778202933 | 10.56° C | 61% | 1014.1 hPa | 0 mm | - | - | - |
| 1778202625 | 11.11° C | 61% | 1014.2 hPa | 0 mm | - | - | - |
| 1778202317 | 11.11° C | 60% | 1014.2 hPa | 0 mm | - | - | - |
* Rain latest hour (hover to see other rain measurements)
** Current wind speed in m/s (hover to see current wind gust speed)